This demonstration page uses our WeatherBlox Daily Observations layout. Learn more.

Left ArrowRight Arrow

Hourly Observations for April 14, 2020

Temp ( °F °C ) Dew Point ( °F °C ) Humidity (%) Winds ( mph kmh ) Pressure ( in mb ) Visibility ( mi km ) Precip ( " mm )
12:51 am 00:51 Mostly Cloudy 55 12.8 44 6.7 67 67 NW 15 24 29.98 1015 10 16.0934 0 0
1:51 am 01:51 Mostly Cloudy 54 12.2 44 6.7 69 69 SSW 5 7 29.97 1015 10 16.0934 0.001 0.001
2:51 am 02:51 Cloudy 51 10.6 44 6.7 77 77 E 3 6 29.98 1015 10 16.0934 0 0
3:51 am 03:51 Mostly Cloudy 49 9.4 44 6.7 83 83 WSW 6 9 29.99 1016 10 16.0934 0 0
4:51 am 04:51 Clear 45 7.2 41 5 86 86 N 3 6 30.02 1017 10 16.0934 0 0
5:51 am 05:51 Sunny 42 5.6 39 3.9 89 89 Calm 30.05 1018 10 16.0934 0 0
6:51 am 06:51 Sunny 50 10 43 6.1 77 77 Calm 30.06 1018 10 16.0934 0 0
7:51 am 07:51 Sunny 54 12.2 45 7.2 72 72 W 3 6 30.07 1018 10 16.0934 0 0
8:51 am 08:51 Sunny 56 13.3 45 7.2 67 67 Calm 30.07 1018 10 16.0934 0 0
9:51 am 09:51 Sunny 62 16.7 42 5.6 48 48 W 6 9 30.06 1018 10 16.0934 0 0
10:51 am 10:51 Sunny 65 18.3 33 0.6 31 31 VRB 5 7 30.05 1018 10 16.0934 0 0
11:51 am 11:51 Sunny 69 20.6 17 -8.3 14 14 WNW 13 20 30.01 1016 10 16.0934 0 0
12:51 pm 12:51 Sunny 70 21.1 21 -6.1 16 16 WNW 9 15 29.97 1015 10 16.0934 0 0
1:51 pm 13:51 Sunny 72 22.2 20 -6.7 14 14 N 9 15 29.94 1014 10 16.0934 0 0
2:51 pm 14:51 Sunny 73 22.8 17 -8.3 12 12 WNW 14 22 29.92 1013 10 16.0934 0 0
3:51 pm 15:51 Sunny 73 22.8 14 -10 10 10 WNW 14 22 29.91 1013 10 16.0934 0 0
4:51 pm 16:51 Sunny 72 22.2 15 -9.4 11 11 WNW 20 31 29.91 1013 10 16.0934 0 0
5:51 pm 17:51 Sunny 70 21.1 15 -9.4 12 12 NW 17 28 29.92 1013 10 16.0934 0 0
6:51 pm 18:51 Clear 66 18.9 14 -10 13 13 NW 14 22 29.92 1013 10 16.0934 0 0
7:51 pm 19:51 Clear 63 17.2 16 -8.9 16 16 NW 14 22 29.93 1014 10 16.0934 0 0
8:51 pm 20:51 Clear 56 13.3 13 -10.6 18 18 W 8 13 29.98 1015 10 16.0934 0 0
9:51 pm 21:51 Clear 53 11.7 18 -7.8 25 25 W 8 13 29.98 1015 10 16.0934 0 0
10:51 pm 22:51 Clear 52 11.1 21 -6.1 30 30 NNW 7 11 29.98 1015 10 16.0934 0 0
11:51 pm 23:51 Clear 50 10 21 -6.1 32 32 N 5 7 29.99 1016 10 16.0934 0 0

Powered by AerisWeather